TFL1925 EHRD-HEGN

Flight info

Callsign TFL1925
Flight time N/A
Altitude 33000
Route ARNEM L620 PIKIB Z36 MAREM DCT PISAM DCT PESAT DCT BAREB DCT TUVAR DCT ODLET DCT VABEK UL603 OLOTA DCT RUGAS UN128 FSK UG18 MES UL609 RDS UL995 VANZA N134 KOMEZ M855 RASDA A16 CVO L315 SOKOT SOKOT1A
Aircraft B738/M-SDE2E3FGHIRWXY/LB1

Departure

Time 2026-04-28 08:38
Airport Rotterdam The Hague Airport (EHRD)

Arrival

Time N/A
Airport Hurghada International Airport (HEGN)
Time Latitude Longitude Altitude Speed Heading
2026-04-28 08:16 51.95040 4.43561 0 ft 0 kts 327°
2026-04-28 08:33 51.95047 4.43554 1 ft 3 kts 327°
2026-04-28 08:33 51.95071 4.43544 0 ft 4 kts
2026-04-28 08:33 51.95092 4.43565 0 ft 4 kts 30°
2026-04-28 08:34 51.95142 4.43542 0 ft 10 kts 326°
2026-04-28 08:34 51.95199 4.43482 0 ft 10 kts 327°
2026-04-28 08:34 51.95240 4.43405 0 ft 9 kts 274°
2026-04-28 08:34 51.95208 4.43315 0 ft 9 kts 236°
2026-04-28 08:35 51.95174 4.43230 0 ft 9 kts 238°
2026-04-28 08:35 51.95145 4.43145 1 ft 9 kts 244°
2026-04-28 08:35 51.95119 4.43058 0 ft 9 kts 244°
2026-04-28 08:35 51.95115 4.42964 0 ft 9 kts 293°
2026-04-28 08:36 51.95160 4.42898 0 ft 9 kts 328°
2026-04-28 08:36 51.95210 4.42849 1 ft 8 kts 355°
2026-04-28 08:36 51.95244 4.42909 1 ft 0 kts 61°
2026-04-28 08:36 51.95245 4.42909 1 ft 0 kts 61°
2026-04-28 08:37 51.95274 4.42987 0 ft 35 kts 57°
2026-04-28 08:37 51.95542 4.43658 -2 ft 105 kts 57°
2026-04-28 08:37 51.96049 4.44932 38 ft 158 kts 59°
2026-04-28 08:38 51.96612 4.46489 751 ft 163 kts 59°
2026-04-28 08:38 51.97157 4.47954 1592 ft 163 kts 60°
2026-04-28 08:38 51.97753 4.49569 2270 ft 174 kts 61°
2026-04-28 08:38 51.98398 4.51336 2506 ft 196 kts 64°
2026-04-28 08:39 51.99036 4.53385 2908 ft 209 kts 65°
2026-04-28 08:39 51.99703 4.55529 3414 ft 215 kts 60°
2026-04-28 08:39 52.00747 4.57439 3777 ft 237 kts 46°
2026-04-28 08:39 52.02122 4.59017 4360 ft 250 kts 29°
2026-04-28 08:40 52.03745 4.60140 5021 ft 256 kts 27°
2026-04-28 08:40 52.05347 4.61403 5717 ft 255 kts 41°
2026-04-28 08:40 52.06583 4.63384 6470 ft 253 kts 51°
2026-04-28 08:40 52.07793 4.65496 7127 ft 257 kts 50°
2026-04-28 08:41 52.09029 4.67626 7800 ft 261 kts 49°
2026-04-28 08:41 52.10298 4.69788 8436 ft 266 kts 49°
2026-04-28 08:41 52.11584 4.71964 9141 ft 269 kts 50°
2026-04-28 08:41 52.12900 4.74193 9738 ft 275 kts 49°
2026-04-28 08:42 52.14240 4.76459 10372 ft 279 kts 50°
2026-04-28 08:42 52.15531 4.78877 10714 ft 291 kts 62°
2026-04-28 08:42 52.16244 4.82036 10911 ft 305 kts 76°
2026-04-28 08:42 52.16858 4.85467 11064 ft 325 kts 75°
2026-04-28 08:43 52.17535 4.89089 11240 ft 343 kts 73°
2026-04-28 08:43 52.18250 4.92882 11519 ft 356 kts 75°
2026-04-28 08:43 52.18984 4.96755 12093 ft 360 kts 75°
2026-04-28 08:43 52.19725 5.00675 12624 ft 365 kts 74°
2026-04-28 08:44 52.20475 5.04654 13210 ft 368 kts 74°
2026-04-28 08:44 52.21218 5.08604 13888 ft 369 kts 74°
2026-04-28 08:44 52.21974 5.12632 14414 ft 373 kts 75°
2026-04-28 08:44 52.22736 5.16703 14898 ft 377 kts 75°
2026-04-28 08:45 52.23503 5.20811 15416 ft 380 kts 75°
2026-04-28 08:45 52.24236 5.24979 15909 ft 383 kts 79°
2026-04-28 08:45 52.24344 5.29313 16404 ft 384 kts 96°
2026-04-28 08:45 52.24054 5.33656 16881 ft 388 kts 96°
2026-04-28 08:46 52.23798 5.38060 17364 ft 391 kts 96°
2026-04-28 08:46 52.23566 5.42486 17948 ft 392 kts 95°
2026-04-28 08:46 52.23340 5.46948 18349 ft 397 kts 96°
2026-04-28 08:46 52.23107 5.51417 18712 ft 402 kts 97°
2026-04-28 08:47 52.22452 5.55820 19179 ft 401 kts 112°
2026-04-28 08:47 52.21356 5.60033 19579 ft 405 kts 113°
2026-04-28 08:47 52.20276 5.64307 19909 ft 409 kts 112°
2026-04-28 08:47 52.19215 5.68594 20444 ft 408 kts 112°
2026-04-28 08:48 52.18156 5.72914 20849 ft 411 kts 112°
2026-04-28 08:48 52.17090 5.77277 21204 ft 415 kts 112°
2026-04-28 08:48 52.16016 5.81669 21516 ft 419 kts 112°
2026-04-28 08:48 52.14934 5.86083 21945 ft 421 kts 112°
2026-04-28 08:49 52.13861 5.90451 22468 ft 420 kts 112°
2026-04-28 08:49 52.12768 5.94902 22659 ft 427 kts 113°
2026-04-28 08:49 52.11649 5.99428 22829 ft 434 kts 114°
2026-04-28 08:49 52.10518 6.03996 23193 ft 437 kts 115°
2026-04-28 08:50 52.09425 6.08621 23521 ft 440 kts 108°
2026-04-28 08:50 52.08770 6.13519 23787 ft 446 kts 101°
2026-04-28 08:50 52.08305 6.18521 24070 ft 449 kts 100°
2026-04-28 08:50 52.07861 6.23559 24357 ft 451 kts 100°
2026-04-28 08:51 52.07398 6.28615 24626 ft 453 kts 101°
2026-04-28 08:51 52.06908 6.33683 24889 ft 455 kts 101°
2026-04-28 08:51 52.06395 6.38765 25152 ft 457 kts 101°
2026-04-28 08:51 52.05863 6.43882 25331 ft 462 kts 101°
2026-04-28 08:52 52.05319 6.49044 25531 ft 465 kts 101°
2026-04-28 08:52 52.04776 6.54160 25820 ft 466 kts 100°
2026-04-28 08:52 52.04224 6.59353 26085 ft 467 kts 101°
2026-04-28 08:52 52.03666 6.64582 26251 ft 471 kts 101°
2026-04-28 08:53 52.03106 6.69829 26563 ft 471 kts 100°
2026-04-28 08:53 52.02542 6.75076 26845 ft 473 kts 101°
2026-04-28 08:53 52.01872 6.80318 27045 ft 475 kts 104°
2026-04-28 08:53 52.01047 6.85521 27349 ft 475 kts 106°
2026-04-28 08:54 52.00174 6.90680 27657 ft 475 kts 106°
2026-04-28 08:54 51.99307 6.95873 27797 ft 479 kts 105°
2026-04-28 08:54 51.98470 7.01038 28172 ft 477 kts 105°
2026-04-28 08:54 51.97630 7.06290 28626 ft 475 kts 105°
2026-04-28 08:55 51.96800 7.11428 28816 ft 477 kts 105°
2026-04-28 08:55 51.95894 7.16602 29195 ft 475 kts 107°
2026-04-28 08:55 51.94945 7.21711 29691 ft 472 kts 107°
2026-04-28 08:55 51.93979 7.26813 29901 ft 474 kts 108°
2026-04-28 08:56 51.93008 7.31934 30156 ft 475 kts 107°
2026-04-28 08:56 51.92047 7.37036 30511 ft 473 kts 107°
2026-04-28 08:56 51.91086 7.42158 30664 ft 476 kts 107°
2026-04-28 08:56 51.90124 7.47297 30902 ft 476 kts 107°
2026-04-28 08:57 51.89180 7.52336 31356 ft 470 kts 107°
2026-04-28 08:57 51.88228 7.57407 31587 ft 471 kts 107°
2026-04-28 08:57 51.87272 7.62488 31777 ft 472 kts 107°
2026-04-28 08:57 51.86315 7.67553 32154 ft 469 kts 107°
2026-04-28 08:58 51.85393 7.72609 32411 ft 468 kts 105°
2026-04-28 08:58 51.84601 7.77722 32666 ft 467 kts 103°
2026-04-28 08:58 51.83885 7.82821 32995 ft 465 kts 102°
2026-04-28 08:58 51.83186 7.87928 33146 ft 464 kts 102°
2026-04-28 08:59 51.82482 7.93025 33224 ft 463 kts 102°
2026-04-28 08:59 51.81038 8.03171 33246 ft 465 kts 103°
2026-04-28 09:00 51.79558 8.13310 33252 ft 469 kts 103°
2026-04-28 09:00 51.78042 8.23615 33259 ft 474 kts 103°
2026-04-28 09:01 51.76506 8.34021 33243 ft 478 kts 103°
2026-04-28 09:01 51.75041 8.44512 33256 ft 477 kts 102°
2026-04-28 09:02 51.73624 8.54922 33259 ft 471 kts 102°
2026-04-28 09:02 51.72214 8.65162 33254 ft 469 kts 103°
2026-04-28 09:03 51.70780 8.75435 33279 ft 471 kts 103°
2026-04-28 09:03 51.69318 8.85811 33267 ft 477 kts 103°
2026-04-28 09:04 51.67836 8.96246 33261 ft 479 kts 103°
2026-04-28 09:04 51.66341 9.06714 33256 ft 479 kts 103°
2026-04-28 09:05 51.64844 9.17113 33260 ft 479 kts 103°
2026-04-28 09:05 51.63333 9.27548 33252 ft 478 kts 103°
2026-04-28 09:06 51.61815 9.37958 33261 ft 477 kts 103°
2026-04-28 09:06 51.60292 9.48336 33262 ft 476 kts 103°
2026-04-28 09:07 51.58762 9.58689 33255 ft 475 kts 103°
2026-04-28 09:07 51.57226 9.69013 33261 ft 474 kts 103°
2026-04-28 09:08 51.55693 9.79252 33265 ft 473 kts 103°
2026-04-28 09:08 51.54135 9.89589 33249 ft 473 kts 103°
2026-04-28 09:09 51.52588 9.99794 33259 ft 474 kts 104°
2026-04-28 09:09 51.51018 10.10075 33245 ft 475 kts 104°
2026-04-28 09:10 51.49431 10.20410 33246 ft 476 kts 104°
2026-04-28 09:10 51.47835 10.30730 33255 ft 477 kts 104°
2026-04-28 09:11 51.46229 10.41064 33243 ft 478 kts 104°
2026-04-28 09:11 51.44619 10.51352 33249 ft 479 kts 104°
2026-04-28 09:12 51.42972 10.61710 33251 ft 480 kts 104°
2026-04-28 09:12 51.41307 10.72088 33249 ft 481 kts 104°
2026-04-28 09:13 51.39634 10.82484 33248 ft 482 kts 104°
2026-04-28 09:13 51.37951 10.92889 33252 ft 482 kts 104°
2026-04-28 09:14 51.36283 11.03222 33252 ft 481 kts 104°
2026-04-28 09:14 51.34611 11.13592 33251 ft 481 kts 104°
2026-04-28 09:15 51.32927 11.23971 33264 ft 481 kts 104°
2026-04-28 09:15 51.31237 11.34306 33263 ft 481 kts 104°
2026-04-28 09:16 51.29826 11.42906 33266 ft 481 kts 104°
2026-04-28 09:16 51.28081 11.53218 33280 ft 481 kts 105°
2026-04-28 09:17 51.26024 11.65220 33269 ft 481 kts 104°
2026-04-28 09:17 51.24604 11.73815 33268 ft 482 kts 104°
2026-04-28 09:18 51.22875 11.84186 33267 ft 482 kts 104°
2026-04-28 09:18 51.21129 11.94535 33271 ft 483 kts 104°
2026-04-28 09:19 51.19349 12.04884 33266 ft 484 kts 105°
2026-04-28 09:19 51.17551 12.15235 33254 ft 485 kts 105°
2026-04-28 09:20 51.15756 12.25535 33270 ft 485 kts 105°
2026-04-28 09:20 51.13935 12.35889 33264 ft 486 kts 105°
2026-04-28 09:21 51.12100 12.46259 33265 ft 486 kts 105°
2026-04-28 09:21 51.10259 12.56628 33267 ft 487 kts 105°
2026-04-28 09:22 51.08410 12.66943 33265 ft 487 kts 105°
2026-04-28 09:22 51.06525 12.77307 33259 ft 488 kts 106°
2026-04-28 09:23 51.04631 12.87662 33268 ft 488 kts 106°
2026-04-28 09:23 51.02728 12.98022 33251 ft 488 kts 106°
2026-04-28 09:24 51.00817 13.08379 33250 ft 489 kts 106°
2026-04-28 09:24 50.98908 13.18665 33241 ft 489 kts 106°
2026-04-28 09:25 50.96976 13.29026 33249 ft 489 kts 106°
2026-04-28 09:25 50.95091 13.39390 33260 ft 489 kts 105°
2026-04-28 09:26 50.93266 13.49811 33263 ft 490 kts 105°
2026-04-28 09:26 50.90384 13.59377 33279 ft 486 kts 134°
2026-04-28 09:26 50.87841 13.62843 33239 ft 482 kts 151°
2026-04-28 09:27 50.81645 13.66163 33246 ft 468 kts 180°
2026-04-28 09:27 50.78422 13.66035 33209 ft 460 kts 194°
2026-04-28 09:27 50.75332 13.64886 33236 ft 457 kts 196°
2026-04-28 09:28 50.72139 13.64484 33212 ft 467 kts 178°
2026-04-28 09:28 50.68943 13.65545 33192 ft 476 kts 161°
2026-04-28 09:28 50.66010 13.68041 33257 ft 480 kts 150°
2026-04-28 09:28 50.63205 13.70925 33206 ft 482 kts 149°
2026-04-28 09:29 50.57596 13.76759 33203 ft 484 kts 149°
2026-04-28 09:29 50.51973 13.82499 33214 ft 485 kts 150°
2026-04-28 09:30 50.46283 13.88199 33200 ft 485 kts 150°
2026-04-28 09:30 50.40581 13.93867 33206 ft 484 kts 150°
2026-04-28 09:31 50.34891 13.99508 33211 ft 484 kts 150°
2026-04-28 09:31 50.29203 14.05132 33209 ft 483 kts 150°
2026-04-28 09:32 50.23520 14.10739 33232 ft 483 kts 150°
2026-04-28 09:32 50.17833 14.16335 33238 ft 482 kts 150°
2026-04-28 09:33 50.12194 14.21866 33236 ft 481 kts 150°
2026-04-28 09:33 50.06523 14.27414 33238 ft 481 kts 150°
2026-04-28 09:34 50.00855 14.32942 33241 ft 481 kts 151°
2026-04-28 09:34 49.95172 14.38470 33228 ft 481 kts 150°
2026-04-28 09:35 49.89487 14.43984 33203 ft 482 kts 151°
2026-04-28 09:35 49.83793 14.49491 33200 ft 483 kts 151°
2026-04-28 09:36 49.78117 14.54965 33202 ft 484 kts 151°
2026-04-28 09:36 49.72395 14.60469 33201 ft 485 kts 151°
2026-04-28 09:37 49.66659 14.65970 33191 ft 485 kts 151°
2026-04-28 09:37 49.60923 14.71457 33192 ft 485 kts 151°
2026-04-28 09:38 49.55174 14.76940 33192 ft 485 kts 151°
2026-04-28 09:38 49.49467 14.82368 33195 ft 485 kts 151°
2026-04-28 09:39 49.43714 14.87824 33171 ft 485 kts 152°
2026-04-28 09:39 49.37955 14.93271 33191 ft 486 kts 152°
2026-04-28 09:40 49.32190 14.98708 33190 ft 486 kts 152°
2026-04-28 09:40 49.26427 15.04128 33188 ft 486 kts 152°
2026-04-28 09:41 49.20688 15.09511 33187 ft 487 kts 152°
2026-04-28 09:41 49.14908 15.14918 33179 ft 487 kts 153°
2026-04-28 09:42 49.09113 15.20324 33188 ft 489 kts 153°
2026-04-28 09:42 49.03298 15.25733 33193 ft 490 kts 153°
2026-04-28 09:43 48.97459 15.31152 33194 ft 492 kts 153°
2026-04-28 09:43 48.91597 15.36577 33175 ft 493 kts 154°
2026-04-28 09:44 48.86118 15.42995 33211 ft 503 kts 140°
2026-04-28 09:44 48.81093 15.50455 33199 ft 506 kts 139°
2026-04-28 09:45 48.76084 15.57894 33194 ft 508 kts 140°
2026-04-28 09:45 48.71001 15.65316 33193 ft 508 kts 140°
2026-04-28 09:46 48.65878 15.72716 33150 ft 508 kts 141°
2026-04-28 09:46 48.60752 15.80092 33194 ft 508 kts 141°
2026-04-28 09:47 48.55625 15.87451 33198 ft 508 kts 140°
2026-04-28 09:47 48.50489 15.94805 33197 ft 509 kts 141°
2026-04-28 09:48 48.45381 16.02101 33193 ft 509 kts 141°
2026-04-28 09:48 48.40228 16.09438 33186 ft 509 kts 141°
2026-04-28 09:49 48.35106 16.16709 33185 ft 509 kts 141°
2026-04-28 09:49 48.29923 16.24046 33200 ft 510 kts 141°
2026-04-28 09:50 48.24770 16.31317 33207 ft 512 kts 141°
2026-04-28 09:50 48.19584 16.38615 33210 ft 513 kts 141°
2026-04-28 09:51 48.14368 16.45934 33219 ft 514 kts 141°
2026-04-28 09:51 48.09127 16.53267 33186 ft 516 kts 140°
2026-04-28 09:52 48.03904 16.60554 33208 ft 517 kts 140°
2026-04-28 09:52 47.98638 16.67878 33216 ft 518 kts 140°
2026-04-28 09:53 47.93350 16.75213 33197 ft 519 kts 141°
2026-04-28 09:53 47.88058 16.82531 33195 ft 519 kts 141°
2026-04-28 09:54 47.82781 16.89809 33177 ft 519 kts 141°
2026-04-28 09:54 47.77472 16.97113 33181 ft 519 kts 141°
2026-04-28 09:55 47.72150 17.04214 33181 ft 516 kts 147°
2026-04-28 09:55 47.65973 17.09512 33198 ft 505 kts 160°
2026-04-28 09:56 47.59643 17.13898 33182 ft 505 kts 160°
2026-04-28 09:56 47.53273 17.18356 33181 ft 506 kts 160°
2026-04-28 09:57 47.46926 17.22860 33183 ft 506 kts 160°
2026-04-28 09:57 47.40574 17.27383 33183 ft 506 kts 160°
2026-04-28 09:58 47.34220 17.31896 33187 ft 507 kts 160°
2026-04-28 09:58 47.27868 17.36391 33182 ft 506 kts 159°
2026-04-28 09:59 47.21548 17.40849 33181 ft 507 kts 160°
2026-04-28 09:59 47.15174 17.45333 33177 ft 507 kts 160°
2026-04-28 10:00 47.08799 17.49805 33162 ft 507 kts 160°
2026-04-28 10:00 47.02472 17.54233 33158 ft 507 kts 159°
2026-04-28 10:01 46.96087 17.58690 33152 ft 507 kts 159°
2026-04-28 10:01 46.89710 17.63128 33164 ft 507 kts 159°
2026-04-28 10:02 46.83330 17.67557 33132 ft 507 kts 159°
2026-04-28 10:02 46.77006 17.71937 33152 ft 506 kts 160°
2026-04-28 10:03 46.70650 17.76327 33162 ft 505 kts 159°
2026-04-28 10:03 46.64288 17.80708 33171 ft 505 kts 159°
2026-04-28 10:04 46.57925 17.85079 33155 ft 505 kts 159°
2026-04-28 10:04 46.51575 17.89431 33159 ft 504 kts 159°
2026-04-28 10:05 46.45220 17.93774 33164 ft 504 kts 159°
2026-04-28 10:05 46.38916 17.98071 33159 ft 504 kts 159°
2026-04-28 10:06 46.32569 18.02387 33162 ft 503 kts 159°
2026-04-28 10:06 46.26227 18.06688 33163 ft 503 kts 159°
2026-04-28 10:07 46.19892 18.10972 33173 ft 503 kts 159°
2026-04-28 10:07 46.13561 18.15244 33164 ft 503 kts 159°
2026-04-28 10:08 46.07266 18.19481 33154 ft 502 kts 159°
2026-04-28 10:08 46.00933 18.23733 33160 ft 502 kts 159°
2026-04-28 10:09 45.94608 18.27968 33154 ft 501 kts 159°
2026-04-28 10:09 45.88287 18.32191 33143 ft 500 kts 159°
2026-04-28 10:10 45.83041 18.35688 33153 ft 499 kts 159°
2026-04-28 10:10 45.76738 18.39880 33168 ft 499 kts 159°
2026-04-28 10:11 45.70810 18.45135 33173 ft 505 kts 145°
2026-04-28 10:11 45.65255 18.51310 33130 ft 505 kts 144°
2026-04-28 10:12 45.59703 18.57451 33145 ft 504 kts 145°
2026-04-28 10:12 45.54126 18.63508 33165 ft 504 kts 146°
2026-04-28 10:13 45.48561 18.69500 33154 ft 504 kts 146°
2026-04-28 10:13 45.42966 18.75509 33158 ft 504 kts 146°
2026-04-28 10:14 45.37368 18.81513 33148 ft 503 kts 146°
2026-04-28 10:14 45.31770 18.87504 33151 ft 503 kts 146°
2026-04-28 10:15 45.26171 18.93480 33154 ft 503 kts 146°
2026-04-28 10:15 45.20579 18.99436 33148 ft 502 kts 146°
2026-04-28 10:16 45.14933 19.05254 33132 ft 499 kts 153°
2026-04-28 10:16 45.08630 19.09051 33138 ft 488 kts 171°
2026-04-28 10:17 45.01992 19.10838 33138 ft 485 kts 175°
2026-04-28 10:17 44.95347 19.12542 33142 ft 485 kts 174°
2026-04-28 10:18 44.88712 19.14306 33139 ft 486 kts 174°
2026-04-28 10:18 44.82111 19.16092 33141 ft 485 kts 174°
2026-04-28 10:19 44.75569 19.17869 33146 ft 473 kts 174°
2026-04-28 10:19 44.69120 19.19608 33135 ft 470 kts 174°
2026-04-28 10:20 44.62703 19.21330 33130 ft 468 kts 173°
2026-04-28 10:20 44.56312 19.23042 33131 ft 467 kts 173°
2026-04-28 10:21 44.49958 19.24740 33132 ft 468 kts 173°
2026-04-28 10:21 44.43555 19.26448 33142 ft 469 kts 173°
2026-04-28 10:22 44.37122 19.28161 33127 ft 472 kts 173°
2026-04-28 10:22 44.30664 19.29877 33112 ft 473 kts 173°
2026-04-28 10:23 44.24199 19.31598 33127 ft 473 kts 173°
2026-04-28 10:23 44.17746 19.33294 33130 ft 474 kts 173°
2026-04-28 10:24 44.11254 19.35011 33124 ft 475 kts 173°
2026-04-28 10:24 44.04755 19.36727 33116 ft 474 kts 172°
2026-04-28 10:25 43.98323 19.38779 33114 ft 478 kts 161°
2026-04-28 10:25 43.92569 19.43399 33117 ft 482 kts 140°
2026-04-28 10:26 43.87705 19.49776 33115 ft 481 kts 136°
2026-04-28 10:26 43.82900 19.56217 33110 ft 479 kts 137°
2026-04-28 10:27 43.78109 19.62537 33115 ft 478 kts 137°
2026-04-28 10:27 43.73279 19.68833 33117 ft 477 kts 137°
2026-04-28 10:28 43.68437 19.75115 33129 ft 476 kts 137°
2026-04-28 10:29 43.61191 19.84493 33098 ft 476 kts 137°
2026-04-28 10:29 43.56354 19.90740 33121 ft 476 kts 137°
2026-04-28 10:30 43.51519 19.96969 33108 ft 476 kts 137°
2026-04-28 10:30 43.46701 20.03162 33110 ft 477 kts 137°
2026-04-28 10:31 43.41847 20.09387 33119 ft 477 kts 138°
2026-04-28 10:31 43.36992 20.15607 33100 ft 476 kts 137°
2026-04-28 10:32 43.32135 20.21805 33117 ft 477 kts 138°
2026-04-28 10:32 43.27262 20.28007 33106 ft 477 kts 138°
2026-04-28 10:33 43.22396 20.34190 33109 ft 477 kts 138°
2026-04-28 10:33 43.17552 20.40330 33122 ft 477 kts 138°
2026-04-28 10:34 43.12683 20.46491 33110 ft 477 kts 138°
2026-04-28 10:34 43.07799 20.52657 33125 ft 478 kts 138°
2026-04-28 10:35 43.02898 20.58831 33115 ft 479 kts 138°
2026-04-28 10:35 42.98011 20.65021 33117 ft 479 kts 137°
2026-04-28 10:36 42.93188 20.71338 33130 ft 480 kts 136°
2026-04-28 10:36 42.88409 20.77625 33134 ft 479 kts 136°
2026-04-28 10:37 42.83595 20.83919 33128 ft 479 kts 137°
2026-04-28 10:37 42.78773 20.90190 33125 ft 479 kts 137°
2026-04-28 10:38 42.73938 20.96461 33131 ft 479 kts 137°
2026-04-28 10:38 42.69142 21.02668 33134 ft 478 kts 137°
2026-04-28 10:39 42.64303 21.08917 33128 ft 478 kts 137°
2026-04-28 10:39 42.59480 21.15131 33141 ft 478 kts 137°
2026-04-28 10:40 42.54655 21.21335 33132 ft 478 kts 137°
2026-04-28 10:40 42.49823 21.27534 33136 ft 478 kts 137°
2026-04-28 10:41 42.44996 21.33712 33135 ft 478 kts 137°
2026-04-28 10:41 42.40190 21.39849 33119 ft 478 kts 137°
2026-04-28 10:42 42.35350 21.46017 33122 ft 477 kts 137°
2026-04-28 10:42 42.30514 21.52168 33116 ft 477 kts 137°
2026-04-28 10:43 42.25662 21.58327 33115 ft 477 kts 137°
2026-04-28 10:43 42.20838 21.64485 33115 ft 477 kts 136°
2026-04-28 10:44 42.16138 21.70725 33107 ft 477 kts 135°
2026-04-28 10:44 42.11425 21.77020 33108 ft 476 kts 135°
2026-04-28 10:45 42.06705 21.83283 33108 ft 476 kts 135°
2026-04-28 10:45 42.01970 21.89532 33112 ft 476 kts 135°
2026-04-28 10:46 41.97236 21.95759 33110 ft 476 kts 135°
2026-04-28 10:46 41.92527 22.01941 33107 ft 476 kts 135°
2026-04-28 10:47 41.87791 22.08145 33108 ft 475 kts 135°
2026-04-28 10:47 41.83043 22.14352 33105 ft 475 kts 135°
2026-04-28 10:48 41.78302 22.20537 33106 ft 475 kts 135°
2026-04-28 10:48 41.73589 22.26672 33108 ft 475 kts 135°
2026-04-28 10:49 41.68841 22.32838 33104 ft 475 kts 135°
2026-04-28 10:49 41.64087 22.39000 33107 ft 474 kts 135°
2026-04-28 10:50 41.59344 22.45133 33110 ft 474 kts 135°
2026-04-28 10:50 41.54598 22.51258 33110 ft 474 kts 135°
2026-04-28 10:51 41.49879 22.57336 33108 ft 474 kts 135°
2026-04-28 10:51 41.45136 22.63430 33115 ft 473 kts 135°
2026-04-28 10:52 41.40396 22.69511 33116 ft 472 kts 135°
2026-04-28 10:52 41.35663 22.75568 33124 ft 472 kts 135°
2026-04-28 10:53 41.30701 22.81262 33110 ft 471 kts 146°
2026-04-28 10:53 41.25183 22.85950 33127 ft 470 kts 148°
2026-04-28 10:54 41.19700 22.90595 33122 ft 470 kts 147°
2026-04-28 10:54 41.14231 22.95338 33122 ft 470 kts 146°
2026-04-28 10:55 41.08800 23.00177 33118 ft 469 kts 142°
2026-04-28 10:55 41.03739 23.05623 33123 ft 469 kts 140°
2026-04-28 10:56 40.98707 23.11136 33130 ft 469 kts 140°
2026-04-28 10:56 40.93641 23.16594 33122 ft 470 kts 140°
2026-04-28 10:57 40.88560 23.22032 33131 ft 470 kts 140°
2026-04-28 10:57 40.83506 23.27441 33125 ft 471 kts 140°
2026-04-28 10:58 40.78407 23.32895 33122 ft 471 kts 140°
2026-04-28 10:58 40.74164 23.37424 33129 ft 471 kts 140°
2026-04-28 10:59 40.69063 23.42859 33132 ft 471 kts 140°
2026-04-28 10:59 40.63955 23.48292 33133 ft 472 kts 140°
2026-04-28 11:00 40.58834 23.53726 33123 ft 473 kts 140°
2026-04-28 11:00 40.53745 23.59115 33145 ft 473 kts 140°
2026-04-28 11:01 40.48610 23.64542 33138 ft 473 kts 140°
2026-04-28 11:01 40.43481 23.69953 33117 ft 473 kts 141°
2026-04-28 11:02 40.38356 23.75347 33157 ft 472 kts 140°
2026-04-28 11:02 40.33234 23.80728 33133 ft 472 kts 140°
2026-04-28 11:03 40.28138 23.86070 33147 ft 471 kts 140°
2026-04-28 11:03 40.23022 23.91424 33151 ft 470 kts 141°
2026-04-28 11:04 40.17909 23.96763 33136 ft 470 kts 141°
2026-04-28 11:04 40.12797 24.02091 33148 ft 470 kts 141°
2026-04-28 11:05 40.07684 24.07409 33162 ft 470 kts 140°
2026-04-28 11:05 40.02562 24.12726 33138 ft 470 kts 141°
2026-04-28 11:06 39.97470 24.18001 33156 ft 469 kts 140°
2026-04-28 11:06 39.92355 24.23291 33142 ft 469 kts 140°
2026-04-28 11:07 39.87232 24.28577 33149 ft 469 kts 140°
2026-04-28 11:07 39.82111 24.33852 33138 ft 469 kts 140°
2026-04-28 11:08 39.76994 24.39112 33154 ft 469 kts 140°
2026-04-28 11:08 39.71905 24.44333 33140 ft 468 kts 140°
2026-04-28 11:09 39.66784 24.49578 33148 ft 468 kts 140°
2026-04-28 11:09 39.61666 24.54809 33142 ft 467 kts 140°
2026-04-28 11:10 39.56557 24.60022 33139 ft 467 kts 140°
2026-04-28 11:10 39.51479 24.65194 33135 ft 467 kts 140°
2026-04-28 11:11 39.46377 24.70374 33144 ft 466 kts 140°
2026-04-28 11:11 39.41259 24.75558 33145 ft 466 kts 140°
2026-04-28 11:12 39.36147 24.80728 33120 ft 466 kts 140°
2026-04-28 11:12 39.31042 24.85884 33123 ft 466 kts 140°
2026-04-28 11:13 39.25968 24.91000 33122 ft 466 kts 140°
2026-04-28 11:13 39.20851 24.96148 33134 ft 466 kts 141°
2026-04-28 11:14 39.15727 25.01282 33146 ft 466 kts 141°
2026-04-28 11:14 39.10597 25.06411 33119 ft 466 kts 141°
2026-04-28 11:15 39.05502 25.11497 33126 ft 467 kts 141°
2026-04-28 11:15 39.00370 25.16612 33119 ft 467 kts 141°
2026-04-28 11:16 38.95236 25.21720 33124 ft 467 kts 141°
2026-04-28 11:16 38.90099 25.26822 33112 ft 467 kts 141°
2026-04-28 11:17 38.84952 25.31924 33105 ft 467 kts 141°
2026-04-28 11:17 38.79804 25.37017 33110 ft 468 kts 142°
2026-04-28 11:18 38.74645 25.42111 33100 ft 468 kts 142°
2026-04-28 11:18 38.69480 25.47202 33095 ft 469 kts 142°
2026-04-28 11:19 38.64302 25.52296 33090 ft 469 kts 142°
2026-04-28 11:19 38.59155 25.57351 33092 ft 470 kts 142°
2026-04-28 11:20 38.53961 25.62443 33080 ft 471 kts 142°
2026-04-28 11:20 38.48751 25.67543 33078 ft 471 kts 143°
2026-04-28 11:21 38.43555 25.72622 33081 ft 470 kts 143°
2026-04-28 11:21 38.38391 25.77718 33055 ft 469 kts 143°
2026-04-28 11:22 38.33224 25.82787 33065 ft 468 kts 143°
2026-04-28 11:22 38.28060 25.87814 33066 ft 467 kts 143°
2026-04-28 11:23 38.22964 25.92933 33066 ft 467 kts 140°
2026-04-28 11:23 38.18118 25.98349 33074 ft 466 kts 139°
2026-04-28 11:24 38.13253 26.03809 33064 ft 466 kts 140°
2026-04-28 11:24 38.08366 26.09207 33050 ft 465 kts 140°
2026-04-28 11:25 38.03472 26.14589 33045 ft 465 kts 140°
2026-04-28 11:25 37.98588 26.19955 33051 ft 464 kts 140°
2026-04-28 11:26 37.93732 26.25285 33048 ft 464 kts 140°
2026-04-28 11:26 37.88846 26.30641 33054 ft 464 kts 140°
2026-04-28 11:27 37.83950 26.35998 33030 ft 465 kts 140°
2026-04-28 11:27 37.79065 26.41351 33015 ft 464 kts 141°
2026-04-28 11:28 37.74180 26.46696 33030 ft 465 kts 141°
2026-04-28 11:28 37.69315 26.52008 33024 ft 465 kts 141°
2026-04-28 11:29 37.64414 26.57336 33022 ft 465 kts 141°
2026-04-28 11:29 37.59492 26.62662 33001 ft 465 kts 141°
2026-04-28 11:30 37.54576 26.67977 33010 ft 465 kts 141°
2026-04-28 11:30 37.47238 26.75897 33002 ft 465 kts 141°
2026-04-28 11:31 37.42325 26.81190 33010 ft 464 kts 141°
2026-04-28 11:31 37.37468 26.86562 32994 ft 465 kts 139°
2026-04-28 11:32 37.32820 26.92137 32997 ft 465 kts 138°
2026-04-28 11:32 37.28169 26.97776 32998 ft 464 kts 138°
2026-04-28 11:33 37.23501 27.03380 32984 ft 464 kts 139°